TimeCDT,TemperatureF,Dew PointF,Humidity,Sea Level PressureIn,VisibilityMPH,Wind Direction,Wind SpeedMPH,Gust SpeedMPH,PrecipitationIn,Events,Conditions,WindDirDegrees,DateUTC
12:53 AM,50.0,41.0,71,29.88,10.0,North,3.5,-,N/A,,Clear,10,2012-10-04 05:53:00
1:53 AM,54.0,43.0,66,29.86,10.0,NNE,5.8,-,N/A,,Mostly Cloudy,30,2012-10-04 06:53:00
2:53 AM,54.0,43.0,66,29.82,10.0,NE,4.6,-,N/A,,Mostly Cloudy,50,2012-10-04 07:53:00
3:53 AM,54.0,42.1,64,29.78,10.0,NE,6.9,-,N/A,,Scattered Clouds,40,2012-10-04 08:53:00
4:53 AM,53.1,42.1,66,29.73,10.0,Calm,Calm,-,N/A,,Clear,0,2012-10-04 09:53:00
5:53 AM,54.0,41.0,62,29.68,10.0,East,10.4,-,N/A,,Mostly Cloudy,90,2012-10-04 10:53:00
6:53 AM,54.0,43.0,66,29.65,10.0,ESE,8.1,-,N/A,,Overcast,110,2012-10-04 11:53:00
7:53 AM,54.0,44.1,69,29.63,10.0,SE,9.2,-,N/A,,Clear,140,2012-10-04 12:53:00
8:53 AM,53.1,41.0,64,29.63,10.0,South,8.1,25.3,N/A,,Mostly Cloudy,180,2012-10-04 13:53:00
9:07 AM,50.0,39.2,66,29.63,10.0,South,15.0,27.6,N/A,,Overcast,170,2012-10-04 14:07:00
9:53 AM,48.9,41.0,74,29.64,10.0,South,10.4,19.6,N/A,,Overcast,170,2012-10-04 14:53:00
10:53 AM,48.9,42.1,77,29.64,10.0,South,10.4,27.6,N/A,,Overcast,190,2012-10-04 15:53:00
11:03 AM,48.2,42.8,82,29.62,10.0,SSW,13.8,24.2,N/A,,Overcast,200,2012-10-04 16:03:00
11:53 AM,45.0,42.1,90,29.67,6.0,SW,10.4,18.4,0.00,Rain,Light Rain,220,2012-10-04 16:53:00
12:00 PM,44.6,42.8,93,29.65,5.0,SW,6.9,19.6,0.00,Rain,Light Rain,220,2012-10-04 17:00:00
12:09 PM,42.8,41.0,93,29.66,4.0,SW,15.0,27.6,0.00,Rain,Light Rain,220,2012-10-04 17:09:00
12:53 PM,37.9,36.0,93,29.73,7.0,SW,13.8,26.5,0.01,,Overcast,220,2012-10-04 17:53:00
1:38 PM,37.4,-9999,N/A,29.72,10.0,SW,15.0,24.2,N/A,,Overcast,230,2012-10-04 18:38:00
1:53 PM,39.0,-9999,N/A,29.75,10.0,WSW,12.7,27.6,0.00,,Overcast,240,2012-10-04 18:53:00
2:53 PM,-9999,-9999,N/A,29.75,10.0,WSW,15.0,26.5,0.00,Rain,Light Rain,250,2012-10-04 19:53:00
3:53 PM,37.9,33.1,83,29.81,10.0,West,11.5,29.9,0.00,Rain,Light Rain,260,2012-10-04 20:53:00
5:53 PM,37.0,33.1,86,29.86,10.0,West,11.5,28.8,0.00,Rain,Light Rain,260,2012-10-04 22:53:00
6:53 PM,36.0,32.0,86,29.87,10.0,West,16.1,24.2,0.00,Rain,Light Rain,260,2012-10-04 23:53:00
7:53 PM,35.1,32.0,89,29.88,10.0,West,17.3,26.5,0.00,,Overcast,260,2012-10-05 00:53:00
8:02 PM,35.6,32.0,87,29.85,10.0,West,16.1,29.9,0.00,Snow,Light Snow,280,2012-10-05 01:02:00
8:53 PM,35.1,30.9,85,29.89,7.0,West,11.5,23.0,0.00,Snow,Light Snow,270,2012-10-05 01:53:00
9:36 PM,33.8,32.0,93,29.86,6.0,West,12.7,26.5,0.00,Snow,Light Snow,270,2012-10-05 02:36:00
9:53 PM,34.0,32.0,92,29.90,4.0,West,13.8,26.5,0.00,Snow,Light Snow,260,2012-10-05 02:53:00
10:21 PM,33.8,32.0,93,29.86,4.0,West,12.7,27.6,0.01,Snow,Light Snow,260,2012-10-05 03:21:00
10:30 PM,33.8,32.0,93,29.86,4.0,West,10.4,21.9,0.01,Snow,Light Snow,260,2012-10-05 03:30:00
10:39 PM,33.8,32.0,93,29.86,4.0,West,10.4,20.7,0.01,Snow,Light Snow,260,2012-10-05 03:39:00
10:44 PM,33.8,32.0,93,29.86,2.5,West,10.4,-,0.01,Snow,Light Snow,260,2012-10-05 03:44:00
10:53 PM,34.0,32.0,92,29.91,4.0,West,13.8,21.9,0.01,Snow,Light Snow,260,2012-10-05 03:53:00
11:53 PM,34.0,32.0,92,29.91,6.0,West,12.7,21.9,0.00,Snow,Light Snow,260,2012-10-05 04:53:00